Flag for Isle of Man Weather past 2 weeks in Douglas, Isle of Man

Now
48 °F

Scattered clouds.


Feels Like: 40 °F
Forecast: N/A
Wind: 30 mph from Southwest

Location: Isle Of Man / Ronaldsway Airport

Current Time: Mar 6, 2015 at 3:00:11 PM

Latest Report: Mar 6, 2015 at 2:20 PM


Visibility: N/A

Pressure: 30.18 "Hg

Humidity: 82%

Dew point: 43 °F

Location of DouglasLocation

Historic Weather in Douglas — Graph

°F

Douglas temperature yesterday

Maximum temperature yesterday: 48 °F (at 10:20 AM)
Minimum temperature yesterday: 46 °F (at 12:50 AM)
Average temperature yesterday: 47 °F

Past Weeks' High & Low Weather Summary

 TemperatureHumidityPressure
High50 °F (Feb 25, 11:50 AM)100% (Feb 22, 12:20 PM)30.57 "Hg (Feb 22, 12:20 PM)
Low37 °F (Feb 21, 2:50 AM)46% (Feb 26, 4:20 PM)28.82 "Hg (Feb 23, 4:50 PM)
Average43 °F78%29.72 "Hg
* Reported Feb 19 1:20 PM — Mar 6 1:50 PM, Douglas, Weather by CustomWeather, © 2015

Note: Actual official high and low records may vary slightly from our data, if they occured in-between our weather recording intervals... More about our weather records

Advertising

Douglas weather history for previous 24 hours

 ConditionsComfort  
Time TempWeatherWind HumidityBarometerVisibility
1:50 PM
Fri, Mar 6
48 °FScattered clouds.29 mph82%30.21 "HgN/A
1:20 PM48 °FPassing clouds.31 mph82%30.21 "HgN/A
12:50 PM48 °FPassing clouds.30 mph82%30.24 "HgN/A
12:20 PM48 °FPassing clouds.29 mph82%30.24 "HgN/A
11:50 AM48 °FScattered clouds.30 mph82%30.27 "HgN/A
11:20 AM48 °FPartly sunny.28 mph82%30.27 "HgN/A
10:50 AM48 °FPartly sunny.25 mph82%30.30 "HgN/A
10:20 AM48 °FPartly sunny.28 mph82%30.30 "HgN/A
9:50 AM48 °FPartly sunny.25 mph82%30.30 "HgN/A
9:20 AM48 °FPartly sunny.25 mph82%30.30 "HgN/A
8:50 AM46 °FPartly sunny.24 mph87%30.33 "HgN/A
8:20 AM46 °FPartly sunny.24 mph87%30.33 "HgN/A
7:50 AM46 °FPartly sunny.23 mph87%30.36 "HgN/A
7:20 AM46 °FPartly sunny.23 mph87%30.36 "HgN/A
6:50 AM46 °FPassing clouds.23 mph82%30.36 "HgN/A
6:20 AM46 °FPassing clouds.23 mph82%30.36 "HgN/A
5:50 AM46 °FPassing clouds.24 mph82%30.36 "HgN/A
5:20 AM46 °FPassing clouds.22 mph87%30.36 "HgN/A
4:50 AM46 °FPassing clouds.22 mph87%30.39 "HgN/A
3:50 AM46 °FPassing clouds.20 mph82%30.39 "HgN/A
2:50 AM46 °FPassing clouds.17 mph87%30.39 "HgN/A
1:50 AM46 °FPassing clouds.20 mph82%30.42 "HgN/A
12:50 AM46 °FPassing clouds.17 mph87%30.42 "HgN/A
11:50 PM
Thu, Mar 5
46 °FPassing clouds.16 mph87%30.45 "HgN/A
10:50 PM46 °FPassing clouds.17 mph87%30.45 "HgN/A
9:50 PM46 °FClear.23 mph87%30.45 "Hg10 mi
8:50 PM46 °FPassing clouds.24 mph87%30.45 "HgN/A
8:20 PM46 °FPassing clouds.23 mph87%30.45 "HgN/A
7:50 PM46 °FPassing clouds.20 mph93%30.48 "HgN/A
7:20 PM46 °FPassing clouds.18 mph93%30.48 "HgN/A
6:50 PM46 °FPassing clouds.21 mph93%30.45 "HgN/A
6:20 PM46 °FPassing clouds.23 mph87%30.45 "HgN/A
5:50 PM46 °FPartly sunny.22 mph87%30.45 "HgN/A
5:20 PM46 °FPartly sunny.17 mph87%30.45 "HgN/A
4:50 PM46 °FPartly sunny.17 mph87%30.45 "HgN/A
4:20 PM48 °FPartly sunny.21 mph82%30.45 "HgN/A
3:50 PM48 °FPassing clouds.21 mph82%30.45 "HgN/A
3:20 PM48 °FPassing clouds.23 mph82%30.45 "HgN/A
Weather by CustomWeather, © 2015

See weather overviewHow to use our weather pages